Location: Audinghen
(50.8518°N, 1.6129°E)
Time: 02:11:49
(UTC+00:00)

SL-16 R/B - Pass Details

Date: 07 August 2020
Orbit: 841 x 849 km, 71.0° (Epoch: 25 September)

Event Time Altitude Azimuth Distance (km) Brightness Sun altitude
Rises 01:57:52 0° 329° (NNW) 3,425 5.8 -18.0°
Reaches altitude 10° 02:00:19 10° 329° (NNW) 2,485 5.0 -17.8°
Maximum altitude 02:06:03 86° 242° (WSW) 858 2.1 -17.3°
Drops below altitude 10° 02:11:44 10° 155° (SSE) 2,467 4.3 -16.8°
Enters shadow 02:13:14 - 154° (SSE) 3,039 4.8 -16.7°
